Вернуться в каталог

COSMOS 1867 COOLANT

АктивенLEO
NORAD 39670·DEBRIS·🇷🇺 Russia

Запущен Jul 10, 1987 с Baikonur Cosmodrome

Loading…

Ближайшие Пролёты (ближайшие 24 часа)

TLE

СвежийSource: Space-Track

Эпоха: Sep 14, 2026, 02:43 UTC

1 39670U 87060AH  26257.11334106  .00000138  00000-0  85146-4 0  9997
2 39670  65.0090 118.9259 0018419 282.7911  77.1116 14.34036933649395

Отслеживайте COSMOS 1867 COOLANT в реальном времени с AllMySat

Download on the App Store